Weather History for Fort Smith, AR

Change the Weather History Date:

Monday, November 14, 2011

  Actual Average Record
Temperature  
Mean Temperature 70 °F 52 °F  
Max Temperature 82 °F 64 °F 82 °F (1999)
Min Temperature 57 °F 41 °F 19 °F (1963)
Degree Days  
Heating Degree Days 0 13  
Month to date heating degree days 101 148  
Since 1 July heating degree days 212 302  
Cooling Degree Days 4    
Growing Degree Days 19 (Base 50)    
Moisture  
Dew Point 56 °F    
Average Humidity 61    
Maximum Humidity 80    
Minimum Humidity 42    
Precipitation  
Precipitation 0.04 in 0.16 in 2.81 in (1994)
Month to date precipitation 2.13 2.12  
Year to date precipitation 38.06 39.85  
Sea Level Pressure  
Sea Level Pressure 29.75 in    
Wind  
Wind Speed 12 mph (West)    
Max Wind Speed 26 mph    
Max Gust Speed 35 mph    
Visibility 10 miles    
Events Rain , Thunderstorm    
T = Trace of Precipitation, MM = Missing Value Source: NWS Daily Summary

Daily Weather History Graph

Daily Weather History Graph

Search for Another Location

Airport:

Trip Planner

Search our weather history database for the weather conditions in past years. The results will help you decide how hot, cold, wet, or windy it might be!

Date:

Astronomy

Nov. 14, 2011 Rise Set
Actual Time 6:51 AM CST 5:11 PM CST
Civil Twilight 6:24 AM CST 5:38 PM CST
Nautical Twilight 5:53 AM CST 6:09 PM CST
Astronomical Twilight 5:23 AM CST 6:39 PM CST
Moon 8:22 PM CST (11/14) 10:07 AM CST (11/14)
Length of Visible Light 11h 14m
Length of Day
10h 20m
Waning Gibbous, 86% of the Moon is Illuminated
Nov 14
Waning Gibbous
Nov 18
Last Quarter
Nov 25
New
Dec 2
First Quarter
Dec 10
Full

Hourly Weather History & Observations

Time (CST) Temp. Heat Index Dew Point Humidity Pressure Visibility Wind Dir Wind Speed Gust Speed Precip Events Conditions
12:53 AM 75.9 °F - 59.0 °F 56% 29.67 in 10.0 mi SSW 21.9 mph 33.4 mph N/A   Clear
1:53 AM 75.0 °F - 61.0 °F 62% 29.68 in 10.0 mi SSW 19.6 mph 28.8 mph N/A   Clear
2:53 AM 75.0 °F - 62.1 °F 64% 29.67 in 10.0 mi SW 16.1 mph 27.6 mph N/A   Clear
3:53 AM 73.9 °F - 62.1 °F 66% 29.68 in 10.0 mi SSW 19.6 mph 31.1 mph N/A   Clear
4:53 AM 73.0 °F - 62.1 °F 68% 29.70 in 10.0 mi SW 10.4 mph - N/A   Clear
5:53 AM 73.0 °F - 63.0 °F 71% 29.70 in 10.0 mi SW 16.1 mph 23.0 mph N/A   Clear
6:53 AM 73.0 °F - 63.0 °F 71% 29.71 in 10.0 mi SW 15.0 mph 21.9 mph N/A   Clear
8:53 AM 77.0 °F - 62.1 °F 60% 29.76 in 10.0 mi SW 19.6 mph 27.6 mph N/A   Clear
9:53 AM 79.0 °F - 60.1 °F 52% 29.76 in 10.0 mi SW 23.0 mph 33.4 mph N/A   Clear
10:53 AM 81.0 °F 81.0 °F 57.0 °F 44% 29.75 in 10.0 mi WSW 16.1 mph 24.2 mph N/A   Clear
11:53 AM 81.0 °F 80.8 °F 55.9 °F 42% 29.75 in 10.0 mi WSW 17.3 mph 25.3 mph N/A   Clear
12:53 PM 81.0 °F 81.0 °F 57.0 °F 44% 29.72 in 10.0 mi WSW 17.3 mph - N/A   Scattered Clouds
1:53 PM 80.1 °F 80.1 °F 55.0 °F 42% 29.73 in 10.0 mi WNW 12.7 mph - N/A   Mostly Cloudy
2:53 PM 75.0 °F - 53.1 °F 46% 29.73 in 10.0 mi NW 8.1 mph - N/A   Mostly Cloudy
3:53 PM 73.9 °F - 53.1 °F 48% 29.74 in 10.0 mi NNW 5.8 mph - N/A   Mostly Cloudy
4:53 PM 71.1 °F - 51.1 °F 49% 29.75 in 10.0 mi NNW 5.8 mph - N/A   Scattered Clouds
5:53 PM 68.0 °F - 54.0 °F 61% 29.78 in 10.0 mi WNW 4.6 mph - 0.00 in   Overcast
6:53 PM 66.9 °F - 50.0 °F 54% 29.78 in 10.0 mi North 6.9 mph - 0.00 in   Overcast
7:31 PM 62.6 °F - 50.0 °F 63% 29.83 in 6.0 mi NNW 5.8 mph - 0.01 in Rain , Thunderstorm Thunderstorms and Rain
7:53 PM 60.1 °F - 52.0 °F 75% 29.82 in 8.0 mi North 5.8 mph - 0.04 in Rain , Thunderstorm Light Thunderstorms and Rain
8:53 PM 59.0 °F - 53.1 °F 81% 29.81 in 10.0 mi Calm Calm - 0.00 in Thunderstorm Thunderstorm
9:32 PM 57.2 °F - 51.8 °F 82% 29.83 in 10.0 mi SE 3.5 mph - N/A   Mostly Cloudy
9:53 PM 57.9 °F - 52.0 °F 81% 29.80 in 10.0 mi ENE 4.6 mph - N/A   Mostly Cloudy
10:53 PM 57.9 °F - 52.0 °F 81% 29.81 in 10.0 mi NNE 3.5 mph - N/A   Mostly Cloudy
11:12 PM 57.2 °F - 51.8 °F 82% 29.81 in 10.0 mi NE 3.5 mph - N/A Thunderstorm Mostly Cloudy
11:27 PM 57.2 °F - 53.6 °F 88% 29.81 in 10.0 mi East 4.6 mph - N/A   Mostly Cloudy
11:53 PM 57.9 °F - 53.1 °F 84% 29.79 in 10.0 mi Calm Calm - N/A   Overcast